Weather History for Montego Bay, Jamaica

Change the Weather History Date:

Friday, March 1, 2013

  Actual Average Record
Temperature  
Mean Temperature 76 °F -  
Max Temperature 84 °F 83 °F 86 °F (1998)
Min Temperature 69 °F 73 °F 69 °F (2011)
Cooling Degree Days 12    
Growing Degree Days 26 (Base 50)    
Moisture  
Dew Point 70 °F    
Average Humidity 77    
Maximum Humidity 89    
Minimum Humidity 60    
Precipitation  
Precipitation 0.00 in - - ()
Sea Level Pressure  
Sea Level Pressure 29.88 in    
Wind  
Wind Speed 6 mph ()    
Max Wind Speed 15 mph    
Max Gust Speed -    
Visibility 7.1 miles    
Events Rain    
Averages and records for this station are not official NWS values.
T = Trace of Precipitation, MM = Missing Value Source: Averaged Metar Reports

Daily Weather History Graph

Daily Weather History Graph

Search for Another Location

Airport:

Trip Planner

Search our weather history database for the weather conditions in past years. The results will help you decide how hot, cold, wet, or windy it might be!

Date:

Astronomy

Mar. 01, 2013 Rise Set
Actual Time 6:30 AM EST 6:17 PM EST
Civil Twilight 6:08 AM EST 6:39 PM EST
Nautical Twilight 5:43 AM EST 7:05 PM EST
Astronomical Twilight 5:17 AM EST 7:30 PM EST
Moon 10:03 PM EST (3/1) 8:56 AM EST (3/1)
Length of Visible Light 12h 31m
Length of Day
11h 47m
Waning Gibbous, 83% of the Moon is Illuminated
Mar 1
Waning Gibbous
Mar 4
Last Quarter
Mar 11
New
Mar 19
First Quarter
Mar 27
Full

Hourly Weather History & Observations

Time (EST) Temp. Heat Index Dew Point Humidity Pressure Visibility Wind Dir Wind Speed Gust Speed Precip Events Conditions
12:00 AM 77.0 °F - 71.6 °F 83% 29.92 in 6.2 mi SSE 6.9 mph - N/A   Mostly Cloudy
1:00 AM 75.2 °F - 68.0 °F 78% 29.92 in 6.2 mi South 2.3 mph - N/A   Partly Cloudy
2:00 AM 75.2 °F - 68.0 °F 78% 29.89 in 6.2 mi SSE 8.1 mph - N/A   Scattered Clouds
3:00 AM 75.2 °F - 66.2 °F 73% 29.86 in 6.2 mi ESE 3.5 mph - N/A   Partly Cloudy
4:00 AM - - - %  in 12 mi East 4.6 mph - -  
4:00 AM 75.2 °F - 68.0 °F 78% 29.86 in - East 4.6 mph - N/A   Partly Cloudy
5:00 AM 71.6 °F - 66.2 °F 83% 29.86 in 6.2 mi SSE 2.3 mph - N/A   Partly Cloudy
6:00 AM 71.6 °F - 66.2 °F 83% 29.89 in 6.2 mi South 2.3 mph - N/A   Partly Cloudy
7:00 AM 72 °F - 66 °F 77% 29.91 in 16 mi South 3.5 mph - -   Scattered Clouds
7:00 AM 71.6 °F - 66.2 °F 83% 29.89 in 6.2 mi South 3.5 mph - N/A   Partly Cloudy
8:00 AM 78.8 °F - 68.0 °F 69% 29.92 in 6.2 mi NNW 1.2 mph - N/A   Partly Cloudy
9:00 AM 80.6 °F 83.2 °F 68.0 °F 65% 29.92 in 6.2 mi ESE 5.8 mph - N/A   Partly Cloudy
10:00 AM 82 °F - 71 °F 60% 29.93 in 17 mi NE 11.5 mph - -   Scattered Clouds
10:00 AM 82.4 °F 86.3 °F 69.8 °F 66% 29.92 in 6.2 mi NE 11.5 mph - N/A   Partly Cloudy
11:00 AM 80.6 °F 84.6 °F 71.6 °F 74% 29.92 in 6.2 mi NE 12.7 mph - N/A   Partly Cloudy
12:00 PM 82.4 °F 87.2 °F 71.6 °F 70% 29.89 in 6.2 mi ENE 15.0 mph - N/A   Partly Cloudy
1:00 PM 84.2 °F 89.6 °F 71.6 °F 66% 29.86 in 6.2 mi ENE 13.8 mph - N/A   Scattered Clouds
2:00 PM 82.4 °F 87.2 °F 71.6 °F 70% 29.86 in 6.2 mi ENE 11.5 mph - N/A   Scattered Clouds
3:00 PM 80.6 °F 84.6 °F 71.6 °F 74% 29.83 in 6.2 mi NE 10.4 mph - N/A Rain Light Rain Showers
4:00 PM 80 °F - 72 °F 71% 29.85 in 4 mi NE 9.2 mph - - Rain Light Rain Showers
4:00 PM 80.6 °F 84.6 °F 71.6 °F 74% 29.83 in 3.7 mi NE 9.2 mph - N/A Rain Light Rain Showers
5:00 PM 78.8 °F - 73.4 °F 83% 29.83 in 6.2 mi West 5.8 mph - N/A   Scattered Clouds
6:00 PM 78.8 °F - 71.6 °F 78% 29.83 in 6.2 mi NW 6.9 mph - N/A   Mostly Cloudy
7:00 PM 75.2 °F - 71.6 °F 89% 29.86 in 6.2 mi East 4.6 mph - N/A   Mostly Cloudy
8:00 PM 75.2 °F - 71.6 °F 89% 29.86 in 6.2 mi East 4.6 mph - N/A   Partly Cloudy
9:00 PM 75.2 °F - 71.6 °F 89% 29.89 in 6.2 mi East 4.6 mph - N/A   Partly Cloudy
10:00 PM 75 °F - 71 °F 84% 29.91 in 11 mi ESE 4.6 mph - -   Mostly Cloudy
10:00 PM 75.2 °F - 71.6 °F 89% 29.89 in 6.2 mi ESE 4.6 mph - N/A   Mostly Cloudy
11:00 PM 75.2 °F - 71.6 °F 89% 29.89 in 6.2 mi SSE 3.5 mph - N/A   Scattered Clouds